Lowell, ID

6:02 PM MDT on May 27, 2017 (GMT -0600)
Lowell

Weather History for KP69 - March, 2014

Change the Weather History Date:

Saturday, March 15, 2014

  Actual Average Record
Temperature  
Mean Temperature 44 °F -  
Max Temperature 51 °F 52 °F 66 °F (1999)
Min Temperature 36 °F 31 °F 27 °F (1997)
Degree Days  
Heating Degree Days 22    
Moisture  
Dew Point 38 °F    
Average Humidity 87    
Maximum Humidity 97    
Minimum Humidity 68    
Precipitation  
Precipitation 0.00 in - - ()
Sea Level Pressure  
Sea Level Pressure 30.43 in    
Wind  
Wind Speed 2 mph (North)    
Max Wind Speed 9 mph    
Max Gust Speed -    
Averages and records for this station are not official NWS values.
T = Trace of Precipitation, MM = Missing Value Source: NWS Daily Summary

Daily Weather History Graph

Daily Weather History Graph

Search for Another Location

Airport or City:

Trip Planner

Search our weather history database for the weather conditions in past years. The results will help you decide how hot, cold, wet, or windy it might be!

Date:

Astronomy

Mar. 15, 2014 Rise Set
Actual Time 7:54 AM MDT 7:47 PM MDT
Civil Twilight 7:24 AM MDT 8:17 PM MDT
Nautical Twilight 6:49 AM MDT 8:52 PM MDT
Astronomical Twilight 6:14 AM MDT 9:27 PM MDT
Moon 7:10 PM MDT (3/15) 7:09 AM MDT (3/15)
Length of Visible Light 12h 52m
Length of Day
11h 53m
Waxing Gibbous, 99% of the Moon is Illuminated
Mar 15
Waxing Gibbous
Mar 16
Full
Mar 23
Last Quarter
Mar 30
New
Apr 7
First Quarter

Hourly Weather History & Observations

Time (MDT) Temp. Windchill Dew Point Humidity Pressure Visibility Wind Dir Wind Speed Gust Speed Precip Events Conditions
12:52 AM 37.0 °F - 36.0 °F 96% 30.33 in - Calm Calm - N/A   Unknown
1:52 AM 37.0 °F 34.5 °F 36.0 °F 96% 30.35 in - NNW 3.5 mph - N/A   Unknown
2:52 AM 37.0 °F 34.5 °F 35.1 °F 93% 30.38 in - North 3.5 mph - N/A   Unknown
3:52 AM 37.0 °F - 35.1 °F 93% 30.41 in - Calm Calm - N/A   Unknown
4:52 AM 37.0 °F - 35.1 °F 93% 30.43 in - Calm Calm - N/A   Unknown
5:52 AM 37.0 °F 34.5 °F 35.1 °F 93% 30.45 in - North 3.5 mph - N/A   Unknown
6:52 AM 36.0 °F - 35.1 °F 97% 30.47 in - Calm Calm - N/A   Unknown
7:52 AM 36.0 °F 33.3 °F 35.1 °F 97% 30.49 in - North 3.5 mph - N/A   Unknown
8:52 AM 37.0 °F 33.3 °F 35.1 °F 93% 30.51 in - NNW 4.6 mph - N/A   Unknown
9:52 AM 39.0 °F - 36.0 °F 89% 30.52 in - Calm Calm - N/A   Unknown
10:52 AM 42.1 °F 40.2 °F 37.0 °F 82% 30.52 in - North 3.5 mph - N/A   Unknown
11:52 AM 46.0 °F 44.8 °F 37.9 °F 73% 30.50 in - North 3.5 mph - N/A   Unknown
12:52 PM 46.9 °F - 39.0 °F 74% 30.48 in - Calm Calm - N/A   Unknown
1:52 PM 50.0 °F - 39.9 °F 68% 30.45 in - Calm Calm - N/A   Unknown
2:52 PM 51.1 °F - 41.0 °F 68% 30.45 in - Calm Calm - N/A   Unknown
3:52 PM 50.0 °F - 43.0 °F 77% 30.43 in - Calm Calm - N/A   Unknown
4:52 PM 50.0 °F - 44.1 °F 80% 30.42 in - Calm Calm - N/A   Unknown
5:52 PM 48.0 °F - 42.1 °F 80% 30.39 in - Calm Calm - N/A   Unknown
6:52 PM 45.0 °F 43.5 °F 39.9 °F 82% 30.39 in - North 3.5 mph - N/A   Unknown
7:52 PM 42.1 °F - 39.0 °F 89% 30.40 in - Calm Calm - N/A   Unknown
8:52 PM 39.9 °F 36.7 °F 37.0 °F 89% 30.41 in - North 4.6 mph - N/A   Unknown
9:52 PM 39.9 °F 36.7 °F 37.0 °F 89% 30.41 in - Variable 4.6 mph - N/A   Unknown
10:52 PM 37.9 °F 31.5 °F 36.0 °F 93% 30.42 in - NNW 9.2 mph - N/A   Unknown
11:52 PM 36.0 °F 30.3 °F 35.1 °F 97% 30.41 in - NNW 6.9 mph - N/A   Unknown